GW2280 Weather Reports


time (UTC)temp
F
wind
direction
speed
knots
gust
knots
rain 1hr
in
rain 24hr
in
rain mn
in
humidity
%
barometer
mb
20260508060513 41 360 4.3 7.0 0.00 0.00 0.00 63 1008.7
20260508060041 41 360 3.5 7.0 0.00 0.00 0.00 63 1008.7
20260508055511 41 360 3.5 7.8 0.00 0.01 0.00 63 1008.8
20260508055011 41 360 3.5 7.8 0.00 0.01 0.00 63 1008.9
20260508054608 41 360 4.3 7.8 0.00 0.01 0.00 63 1008.9
20260508054012 41 360 3.5 7.8 0.00 0.01 0.00 63 1008.9
20260508053509 41 360 4.3 9.6 0.00 0.01 0.00 62 1008.9
20260508053043 42 360 4.3 9.6 0.00 0.01 0.00 62 1008.9
20260508052510 42 360 4.3 8.7 0.00 0.01 0.00 63 1008.9
20260508052012 42 360 4.3 8.7 0.00 0.01 0.00 64 1009.0
20260508051530 42 360 5.2 8.7 0.00 0.01 0.00 63 1009.0
20260508051013 42 360 4.3 8.7 0.00 0.01 0.00 61 1009.0
20260508050512 42 360 4.3 9.6 0.00 0.01 0.00 61 1009.0
20260508050028 42 360 4.3 9.6 0.00 0.01 0.00 62 1009.1
20260508045514 43 360 5.2 9.6 0.00 0.01 0.00 61 1009.2
20260508045012 43 360 3.5 7.8 0.00 0.01 0.00 62 1009.3
20260508044530 43 360 4.3 7.8 0.00 0.01 0.00 61 1009.3
20260508044013 43 360 3.5 9.6 0.00 0.01 0.00 61 1009.3
20260508043511 43 360 4.3 11.3 0.00 0.01 0.00 61 1009.2
20260508043036 43 360 4.3 11.3 0.00 0.01 0.00 60 1009.1
20260508042515 43 360 6.1 11.3 0.00 0.01 0.00 61 1009.1
20260508042009 43 360 6.1 11.3 0.00 0.01 0.00 61 1009.1
20260508041531 43 360 7.0 11.3 0.00 0.01 0.00 61 1009.1
20260508041011 44 360 7.0 10.4 0.00 0.01 0.00 60 1009.1
20260508040511 44 360 4.3 8.7 0.00 0.01 0.00 59 1009.2
20260508040033 44 360 5.2 8.7 0.00 0.01 0.00 59 1009.3
20260508035513 44 360 4.3 7.8 0.00 0.03 0.01 59 1009.4
20260508035013 44 360 3.5 7.8 0.00 0.03 0.01 58 1009.4
20260508034536 45 360 3.5 7.8 0.00 0.03 0.01 58 1009.4
20260508034016 45 360 4.3 7.8 0.00 0.03 0.01 57 1009.3
20260508033512 45 360 4.3 7.8 0.00 0.03 0.01 57 1009.3
20260508033033 45 360 4.3 7.8 0.00 0.03 0.01 56 1009.3
20260508032512 45 360 4.3 9.6 0.00 0.03 0.01 56 1009.4
20260508032011 46 360 4.3 9.6 0.00 0.03 0.01 55 1009.5
20260508031534 46 360 4.3 9.6 0.00 0.03 0.01 54 1009.4
20260508031011 46 360 4.3 8.7 0.00 0.03 0.01 54 1009.4
20260508030510 46 360 4.3 8.7 0.00 0.03 0.01 54 1009.3
20260508030032 46 360 4.3 10.4 0.00 0.03 0.01 53 1009.3
20260508025513 46 360 5.2 12.2 0.00 0.06 0.01 53 1009.2
20260508025009 46 360 6.1 12.2 0.00 0.06 0.01 53 1009.4
20260508024529 47 322 6.1 13.0 0.00 0.06 0.01 54 1009.3
20260508024013 47 306 7.0 13.0 0.00 0.06 0.01 53 1009.2
20260508023513 47 327 6.1 12.2 0.00 0.06 0.01 53 1009.2
20260508023031 47 360 7.0 12.2 0.00 0.06 0.01 51 1009.2
20260508022511 48 323 5.2 9.6 0.00 0.06 0.01 53 1009.2
20260508022011 48 360 5.2 11.3 0.00 0.06 0.01 51 1009.1
20260508021530 48 328 6.1 13.0 0.00 0.06 0.01 51 1009.1
20260508021017 48 360 4.3 13.0 0.00 0.06 0.01 51 1009.0
20260508020510 48 317 7.8 13.0 0.00 0.06 0.01 50 1008.9
20260508020032 48 321 7.0 12.2 0.00 0.06 0.01 51 1008.9
20260508015512 48 329 4.3 12.2 0.00 0.06 0.01 49 1008.8
20260508015012 49 317 6.1 12.2 0.00 0.06 0.01 50 1008.8
20260508014536 49 352 7.0 9.6 0.00 0.06 0.01 48 1008.8
20260508014011 49 352 4.3 10.4 0.00 0.06 0.01 50 1008.8
20260508013515 49 5 4.3 13.0 0.00 0.06 0.01 48 1008.8
20260508013031 49 347 6.1 13.0 0.00 0.06 0.01 48 1008.7
20260508012515 49 344 7.8 13.0 0.00 0.06 0.01 48 1008.6
20260508012012 49 5 6.1 10.4 0.00 0.06 0.01 49 1008.5
20260508011529 48 348 5.2 10.4 0.00 0.06 0.01 53 1008.5
20260508011011 48 333 4.3 10.4 0.00 0.06 0.01 51 1008.4
20260508010511 48 312 4.3 10.4 0.00 0.06 0.01 52 1008.2
20260508010044 48 294 4.3 9.6 0.00 0.06 0.01 52 1008.1
20260508005512 48 292 4.3 8.7 0.00 0.06 0.01 53 1008.1
20260508005012 49 301 2.6 5.2 0.00 0.06 0.01 51 1008.0
20260508004531 49 312 3.5 5.2 0.00 0.06 0.01 51 1007.9
20260508004013 49 299 2.6 4.3 0.00 0.06 0.01 50 1007.8
20260508003511 50 291 2.6 7.0 0.00 0.06 0.01 49 1007.6
20260508003029 50 298 2.6 7.0 0.00 0.06 0.01 49 1007.5
20260508002510 50 298 2.6 7.8 0.00 0.06 0.01 48 1007.4
20260508002011 50 285 3.5 7.8 0.00 0.06 0.01 48 1007.3
20260508001532 50 263 4.3 7.8 0.00 0.06 0.01 48 1007.3
20260508001010 50 263 3.5 10.4 0.00 0.06 0.01 48 1007.2
20260508000512 51 280 5.2 11.3 0.00 0.06 0.01 47 1007.2
20260508000029 51 268 5.2 11.3 0.00 0.06 0.01 47 1007.1
20260507235514 51 276 6.1 10.4 0.00 0.06 0.01 47 1007.1
20260507235011 52 273 6.1 13.0 0.00 0.06 0.01 47 1007.1
20260507234531 52 279 7.8 13.0 0.00 0.06 0.01 44 1007.1
20260507234012 53 224 7.0 12.2 0.00 0.06 0.01 43 1007.1
20260507233511 53 257 6.1 16.5 0.00 0.06 0.01 45 1007.2
20260507233030 53 239 7.8 17.4 0.00 0.06 0.01 43 1007.1
20260507232512 53 287 8.7 19.1 0.00 0.06 0.01 43 1007.1
20260507232011 54 296 7.8 19.1 0.00 0.06 0.01 43 1007.1
20260507231533 54 265 9.6 19.1 0.00 0.06 0.01 41 1007.0
20260507231010 54 274 8.7 21.7 0.00 0.06 0.01 40 1006.9
20260507230513 55 302 9.6 21.7 0.00 0.06 0.01 39 1006.9
20260507230038 55 281 11.3 20.9 0.00 0.06 0.01 39 1006.7
20260507225511 56 288 10.4 22.6 0.00 0.06 0.01 38 1006.9
20260507225015 56 298 10.4 22.6 0.00 0.06 0.01 38 1006.8
20260507224533 56 277 7.0 13.0 0.00 0.06 0.01 39 1006.7
20260507224011 55 245 5.2 13.0 0.00 0.06 0.01 39 1006.7
20260507223515 55 287 6.1 13.9 0.00 0.06 0.01 41 1006.7
20260507223031 56 267 7.8 14.8 0.00 0.06 0.01 39 1006.6
20260507222511 56 256 8.7 14.8 0.00 0.06 0.01 40 1006.6
20260507222012 56 236 8.7 17.4 0.00 0.06 0.01 39 1006.7
20260507221530 56 284 7.8 18.2 0.00 0.06 0.01 39 1006.6
20260507221012 56 277 7.8 18.2 0.00 0.06 0.01 39 1006.5
20260507220511 57 265 8.7 16.5 0.00 0.06 0.01 38 1006.6
20260507220035 57 257 11.3 21.7 0.00 0.06 0.01 37 1006.5
20260507215512 58 246 11.3 22.6 0.00 0.08 0.01 36 1006.5
20260507215013 58 274 12.2 22.6 0.00 0.08 0.01 38 1006.6
20260507214532 58 261 8.7 19.1 0.00 0.08 0.01 37 1006.5
20260507214011 58 303 7.0 20.9 0.00 0.08 0.01 38 1006.6
20260507213511 58 261 8.7 20.9 0.00 0.08 0.01 37 1006.5
20260507213030 58 281 11.3 20.9 0.00 0.08 0.01 38 1006.5
20260507212513 58 272 9.6 20.0 0.00 0.08 0.01 39 1006.6
20260507212012 58 302 12.2 20.0 0.00 0.08 0.01 36 1006.6
20260507211538 58 290 9.6 19.1 0.00 0.08 0.01 35 1006.5
20260507211011 58 315 11.3 19.1 0.00 0.08 0.01 39 1006.4
20260507210511 58 321 8.7 17.4 0.00 0.08 0.01 38 1006.5
20260507210033 58 263 6.1 17.4 0.00 0.08 0.01 40 1006.5
20260507205513 58 269 7.8 17.4 0.00 0.17 0.01 40 1006.5
20260507205012 58 286 8.7 21.7 0.00 0.17 0.01 39 1006.5
20260507204529 58 254 10.4 22.6 0.00 0.17 0.01 40 1006.3
20260507204012 58 260 11.3 24.3 0.00 0.17 0.01 38 1006.1
20260507203512 58 279 7.8 24.3 0.00 0.17 0.01 40 1006.3
20260507203036 58 281 13.0 20.0 0.00 0.17 0.01 37 1006.4
20260507202509 59 284 11.3 23.5 0.00 0.17 0.01 36 1006.4
20260507202009 59 221 11.3 25.2 0.00 0.17 0.01 36 1006.4
20260507201529 59 317 14.8 25.2 0.00 0.17 0.01 36 1006.3
20260507201013 59 275 12.2 24.3 0.00 0.17 0.01 38 1006.3
20260507200514 59 247 9.6 19.1 0.00 0.17 0.01 41 1006.4
20260507200031 59 284 7.0 22.6 0.00 0.17 0.01 39 1006.4
20260507195514 59 275 12.2 26.1 0.00 0.24 0.01 39 1006.5
20260507195012 59 275 9.6 26.1 0.00 0.24 0.01 38 1006.4
20260507194532 59 270 8.7 22.6 0.00 0.24 0.01 38 1006.5
20260507194012 60 330 12.2 23.5 0.00 0.24 0.01 38 1006.4
20260507193510 60 223 13.0 23.5 0.00 0.24 0.01 38 1006.4
20260507193034 60 263 10.4 20.9 0.00 0.24 0.01 37 1006.5
20260507192511 60 263 8.7 20.9 0.00 0.24 0.01 38 1006.2
20260507192011 60 288 12.2 20.0 0.00 0.24 0.01 39 1006.4
20260507191533 60 308 7.8 21.7 0.00 0.24 0.01 39 1006.5
20260507191011 60 339 13.0 21.7 0.00 0.24 0.01 38 1006.5
20260507190511 60 275 7.0 20.9 0.00 0.24 0.01 44 1006.6
20260507190028 60 309 8.7 20.9 0.00 0.24 0.01 41 1006.7
20260507185509 60 266 10.4 21.7 0.00 0.49 0.01 42 1006.7
20260507185013 60 290 9.6 23.5 0.00 0.49 0.01 42 1006.7
20260507184530 60 314 9.6 23.5 0.00 0.49 0.01 43 1006.6
20260507184010 60 298 9.6 20.0 0.00 0.49 0.01 42 1006.6
20260507183512 60 247 11.3 22.6 0.00 0.49 0.01 42 1006.7
20260507183041 60 284 9.6 22.6 0.00 0.49 0.01 43 1006.7
20260507182512 60 272 10.4 24.3 0.00 0.49 0.01 42 1006.6
20260507182014 59 281 10.4 24.3 0.00 0.49 0.01 40 1006.6
20260507181531 60 240 12.2 21.7 0.00 0.49 0.01 41 1006.6
20260507181012 60 229 9.6 21.7 0.00 0.49 0.01 42 1006.7
20260507180510 60 313 12.2 21.7 0.00 0.49 0.01 41 1006.7
20260507180034 60 271 7.0 21.7 0.00 0.49 0.01 44 1006.6
20260507175516 59 302 8.7 21.7 0.00 0.50 0.01 41 1006.7
20260507175012 60 275 9.6 20.9 0.00 0.50 0.01 45 1006.7
20260507174529 59 239 12.2 20.9 0.00 0.50 0.01 44 1006.7
20260507174011 58 269 11.3 20.9 0.00 0.50 0.01 46 1006.7
20260507173511 58 281 9.6 20.9 0.00 0.50 0.01 45 1006.9
20260507173029 58 280 11.3 20.9 0.00 0.50 0.01 49 1006.9
20260507172510 58 287 11.3 19.1 0.00 0.50 0.01 51 1006.8
20260507172010 58 289 11.3 24.3 0.00 0.50 0.01 54 1007.0
20260507171527 58 338 12.2 24.3 0.00 0.50 0.01 55 1007.0
20260507171012 57 263 9.6 20.0 0.00 0.50 0.01 53 1007.2
20260507170513 57 283 10.4 20.0 0.00 0.50 0.01 54 1007.2
20260507170028 57 281 9.6 17.4 0.00 0.50 0.01 55 1007.2
20260507165513 57 288 7.8 16.5 0.00 0.50 0.01 58 1007.2
20260507165012 56 273 9.6 16.5 0.00 0.50 0.01 58 1007.3
20260507164538 56 288 9.6 19.1 0.00 0.50 0.01 58 1007.4
20260507164010 56 279 8.7 20.0 0.00 0.50 0.01 62 1007.4
20260507163511 57 294 11.3 20.0 0.00 0.50 0.01 59 1007.6
20260507163037 57 283 12.2 21.7 0.00 0.50 0.01 61 1007.2
20260507162513 56 291 12.2 21.7 0.00 0.50 0.01 61 1007.4
20260507162012 56 304 8.7 17.4 0.00 0.50 0.01 61 1007.4
20260507161539 56 278 9.6 18.2 0.00 0.50 0.01 59 1007.4
20260507161011 58 324 9.6 18.2 0.00 0.50 0.01 59 1007.5
20260507160511 57 308 11.3 18.2 0.00 0.50 0.01 58 1007.5
20260507160040 57 306 7.8 18.2 0.00 0.50 0.01 60 1007.6
20260507155511 57 246 9.6 20.0 0.00 0.50 0.01 60 1007.6
20260507155013 56 292 12.2 20.0 0.00 0.50 0.01 59 1007.8
20260507154531 55 298 7.8 17.4 0.00 0.50 0.01 63 1007.8
20260507154012 55 336 8.7 17.4 0.00 0.50 0.01 63 1007.8
20260507153512 55 360 5.2 15.6 0.00 0.50 0.01 64 1008.1
20260507153033 55 360 8.7 19.1 0.00 0.50 0.01 62 1008.1
20260507152512 55 360 9.6 19.1 0.00 0.50 0.01 63 1008.1
20260507152012 56 360 11.3 19.1 0.00 0.50 0.01 63 1008.2
20260507151532 56 338 10.4 19.1 0.00 0.50 0.01 63 1008.2
20260507151013 56 254 7.8 16.5 0.00 0.50 0.01 66 1008.1
20260507150513 56 319 9.6 19.1 0.00 0.50 0.01 64 1008.2
20260507150031 55 319 11.3 23.5 0.00 0.50 0.01 63 1008.1
20260507145510 55 304 13.0 23.5 0.00 0.50 0.01 62 1008.2
20260507145010 55 277 9.6 20.0 0.00 0.50 0.01 65 1008.2
20260507144535 55 308 10.4 20.0 0.00 0.50 0.01 63 1007.9
20260507144014 55 297 10.4 20.9 0.00 0.50 0.01 62 1007.8
20260507143512 55 360 10.4 20.9 0.00 0.50 0.01 63 1007.8
20260507143031 55 360 9.6 20.9 0.00 0.50 0.01 65 1007.9
20260507142512 55 360 10.4 20.0 0.00 0.50 0.01 66 1007.8
20260507142010 55 360 9.6 18.2 0.00 0.50 0.01 64 1007.9
20260507141530 55 360 7.0 18.2 0.00 0.50 0.01 69 1007.9
20260507141011 55 360 7.0 13.0 0.00 0.50 0.01 68 1008.0
20260507140512 54 360 7.0 13.0 0.00 0.50 0.01 70 1008.1
20260507140030 54 360 7.0 13.0 0.00 0.50 0.01 68 1008.1
20260507135513 54 360 4.3 11.3 0.00 0.50 0.01 71 1008.0
20260507135014 54 360 5.2 12.2 0.00 0.50 0.01 69 1008.1
20260507134531 54 360 5.2 12.2 0.00 0.50 0.01 70 1008.1
20260507134011 54 360 6.1 11.3 0.00 0.50 0.01 69 1008.2
20260507133512 54 360 7.0 11.3 0.00 0.50 0.01 70 1008.2
20260507133032 54 360 6.1 11.3 0.00 0.50 0.01 69 1008.3
20260507132514 54 360 3.5 11.3 0.00 0.50 0.01 72 1008.4
20260507132013 53 360 4.3 11.3 0.00 0.50 0.01 73 1008.3
20260507131534 53 360 6.1 11.3 0.00 0.50 0.01 75 1008.3
20260507131014 53 360 4.3 10.4 0.00 0.50 0.01 75 1008.4
20260507130518 52 360 4.3 10.4 0.00 0.50 0.01 77 1008.3
20260507130029 52 360 2.6 9.6 0.00 0.50 0.01 76 1008.3
20260507125513 51 360 3.5 9.6 0.00 0.50 0.01 79 1008.4
20260507125014 51 0 4.3 10.4 0.00 0.50 0.01 79 1008.5
20260507124546 50 360 2.6 10.4 0.00 0.50 0.01 80 1008.5
20260507124014 50 360 5.2 10.4 0.00 0.50 0.01 82 1008.5
20260507123514 49 360 7.0 11.3 0.00 0.50 0.01 83 1008.5
20260507123033 49 360 3.5 11.3 0.00 0.50 0.01 85 1008.5
20260507122511 49 360 3.5 10.4 0.00 0.50 0.01 86 1008.5
20260507122013 48 0 5.2 10.4 0.00 0.50 0.01 86 1008.5
20260507121535 47 360 5.2 8.7 0.00 0.50 0.01 90 1008.5
20260507121015 47 360 5.2 8.7 0.00 0.50 0.01 90 1008.5
20260507120515 47 360 5.2 10.4 0.00 0.50 0.01 91 1008.5
20260507120029 46 360 6.1 10.4 0.00 0.50 0.01 92 1008.5
20260507115513 46 360 5.2 10.4 0.00 0.50 0.01 94 1008.5
20260507115019 46 360 4.3 8.7 0.00 0.50 0.01 95 1008.6
20260507114530 46 0 2.6 7.8 0.00 0.50 0.01 95 1008.6
20260507114012 45 360 3.5 7.8 0.00 0.50 0.01 96 1008.5
20260507113515 45 360 4.3 7.8 0.00 0.50 0.01 96 1008.5
20260507113029 45 360 2.6 7.8 0.00 0.50 0.01 96 1008.4
20260507112517 44 360 2.6 5.2 0.00 0.50 0.01 96 1008.4
20260507112012 44 360 1.7 5.2 0.00 0.50 0.01 96 1008.4
20260507111530 44 360 2.6 5.2 0.00 0.50 0.01 96 1008.3
20260507111013 44 360 1.7 3.5 0.00 0.50 0.01 96 1008.2
20260507110513 44 360 1.7 4.3 0.00 0.50 0.01 96 1008.3
20260507110031 44 360 1.7 4.3 0.00 0.50 0.01 96 1008.5
20260507105511 44 360 1.7 4.3 0.00 0.50 0.01 96 1008.5
20260507105011 44 360 2.6 5.2 0.00 0.50 0.01 96 1008.6
20260507104530 44 360 1.7 5.2 0.00 0.50 0.01 96 1008.6
20260507104017 44 360 2.6 7.0 0.00 0.50 0.01 96 1008.5
20260507103512 44 360 3.5 7.8 0.00 0.50 0.01 96 1008.0
20260507103029 44 360 3.5 7.8 0.00 0.50 0.01 96 1008.3
20260507102510 44 360 4.3 7.8 0.00 0.50 0.01 96 1008.7
20260507102012 44 360 4.3 7.8 0.00 0.50 0.01 96 1008.7
20260507101531 44 360 3.5 7.8 0.00 0.50 0.01 96 1008.3
20260507101010 44 360 5.2 8.7 0.00 0.50 0.01 96 1008.5
20260507100512 44 360 3.5 8.7 0.00 0.50 0.01 96 1008.4
20260507100029 44 360 5.2 8.7 0.00 0.50 0.01 96 1008.6
20260507095510 44 360 4.3 7.8 0.00 0.50 0.01 96 1008.3
20260507095013 44 360 3.5 7.0 0.00 0.50 0.01 96 1008.6
20260507094530 44 360 2.6 7.0 0.00 0.50 0.01 96 1008.3
20260507094009 44 360 2.6 7.0 0.00 0.50 0.01 96 1008.5
20260507093515 44 360 4.3 7.0 0.00 0.50 0.01 96 1008.5
20260507093035 44 360 2.6 7.0 0.00 0.50 0.01 96 1008.3
20260507092512 44 360 2.6 7.0 0.00 0.50 0.01 96 1008.4
20260507092011 44 360 3.5 8.7 0.00 0.50 0.01 96 1008.2
20260507091539 44 360 3.5 9.6 0.00 0.50 0.01 96 1008.0
20260507091015 44 360 4.3 9.6 0.00 0.50 0.01 96 1007.9
20260507090510 44 360 5.2 11.3 0.00 0.50 0.01 96 1007.6
20260507090029 44 360 5.2 11.3 0.00 0.50 0.01 96 1007.8
20260507085511 44 360 5.2 11.3 0.00 0.50 0.01 96 1007.6
20260507085012 44 360 5.2 13.0 0.00 0.50 0.01 96 1007.6
20260507084533 44 360 7.0 13.0 0.00 0.50 0.01 96 1007.9
20260507084011 44 360 6.1 13.0 0.00 0.50 0.01 96 1008.0
20260507083511 44 360 5.2 11.3 0.00 0.50 0.01 96 1007.8
20260507083030 44 360 4.3 11.3 0.00 0.50 0.01 96 1007.6
20260507082510 45 360 6.1 11.3 0.00 0.50 0.01 96 1007.8
20260507082009 45 360 5.2 10.4 0.00 0.50 0.01 96 1008.1
20260507081529 45 360 5.2 10.4 0.00 0.50 0.01 96 1008.0
20260507081011 45 360 6.1 10.4 0.00 0.50 0.01 96 1008.0
20260507080513 45 360 6.1 12.2 0.00 0.50 0.01 96 1007.8
20260507080028 45 360 7.0 12.2 0.00 0.50 0.01 96 1007.4
20260507075511 45 360 7.0 12.2 0.00 0.50 0.01 96 1007.3
20260507075011 45 360 6.1 12.2 0.00 0.50 0.01 96 1007.3
20260507074532 45 360 7.0 12.2 0.00 0.50 0.01 96 1007.7
20260507074013 45 360 5.2 10.4 0.00 0.50 0.01 96 1007.8
20260507073509 45 360 5.2 10.4 0.00 0.50 0.01 96 1007.4
20260507073030 45 360 5.2 11.3 0.00 0.50 0.01 96 1007.3
20260507072510 45 360 6.1 13.0 0.00 0.50 0.01 96 1007.4
20260507072011 45 360 7.0 13.9 0.00 0.50 0.01 96 1007.3
20260507071531 45 360 7.0 13.9 0.00 0.50 0.01 96 1007.4
20260507071011 45 360 4.3 12.2 0.00 0.50 0.01 96 1007.4
20260507070512 45 360 7.0 12.2 0.00 0.50 0.01 96 1007.4
20260507070031 45 360 7.8 14.8 0.00 0.50 0.01 96 1007.2
20260507065511 46 360 7.8 14.8 0.00 0.50 0.01 96 1007.2
20260507065012 46 360 6.1 12.2 0.00 0.50 0.01 96 1007.3
20260507064529 46 360 8.7 13.0 0.00 0.50 0.01 96 1007.4
20260507064011 46 360 7.8 13.0 0.00 0.50 0.01 96 1007.3
20260507063513 46 360 6.1 15.6 0.00 0.50 0.01 96 1006.8
20260507063040 46 360 7.0 15.6 0.00 0.50 0.01 96 1007.1
20260507062509 46 360 7.8 13.9 0.00 0.50 0.01 96 1006.9
20260507062011 46 360 6.1 13.0 0.00 0.50 0.01 97 1007.0
20260507061533 46 360 7.0 13.0 0.00 0.50 0.01 97 1007.1
20260507061009 46 360 4.3 9.6 0.00 0.50 0.01 97 1007.0